Campo, CA

12:57 PM PDT on April 27, 2017 (GMT -0700)
Campo

Weather History for KCZZ - December, 2012

Change the Weather History Date:

Monday, December 24, 2012

  Actual Average Record
Temperature  
Mean Temperature 44 °F 47 °F  
Max Temperature 54 °F 62 °F 78 °F (1960)
Min Temperature 33 °F 33 °F 19 °F (1976)
Degree Days  
Heating Degree Days 21 18  
Month to date heating degree days 392 418  
Since 1 July heating degree days 821 988  
Cooling Degree Days 0 0  
Month to date cooling degree days 0 0  
Year to date cooling degree days 942 841  
Moisture  
Dew Point 41 °F    
Average Humidity 86    
Maximum Humidity 100    
Minimum Humidity 71    
Precipitation  
Precipitation 0.04 in 0.08 in 1.16 in (1959)
Month to date precipitation 1.59 1.66  
Year to date precipitation 9.83 15.12  
Since 1 July precipitation 3.78  
Snow  
Snow 0.00 in - - ()
Month to date snowfall 0.0  
Year to date snowfall 0.0  
Snow Depth 0.00 in    
Sea Level Pressure  
Sea Level Pressure 30.02 in    
Wind  
Wind Speed 8 mph (SSW)    
Max Wind Speed 18 mph    
Max Gust Speed 23 mph    
T = Trace of Precipitation, MM = Missing Value Source: NWS Daily Summary

Daily Weather History Graph

Daily Weather History Graph

Search for Another Location

Airport or City:

Trip Planner

Search our weather history database for the weather conditions in past years. The results will help you decide how hot, cold, wet, or windy it might be!

Date:

Astronomy

Dec. 24, 2012 Rise Set
Actual Time 6:45 AM PST 4:46 PM PST
Civil Twilight 6:18 AM PST 5:13 PM PST
Nautical Twilight 5:47 AM PST 5:44 PM PST
Astronomical Twilight 5:17 AM PST 6:14 PM PST
Moon 2:12 PM PST (12/24) 3:32 AM PST (12/24)
Length of Visible Light 10h 55m
Length of Day
10h 00m
Waxing Gibbous, 89% of the Moon is Illuminated
Dec 24
Waxing Gibbous
Dec 28
Full
Jan 4
Last Quarter
Jan 11
New
Jan 18
First Quarter

Hourly Weather History & Observations

Time (PST) Temp. Windchill Dew Point Humidity Pressure Visibility Wind Dir Wind Speed Gust Speed Precip Events Conditions
12:52 AM 35.1 °F 32.2 °F 33.1 °F 92% 30.07 in - NNE 3.5 mph - N/A   Unknown
1:52 AM 34.0 °F - 32.0 °F 92% 30.06 in - Calm Calm - N/A   Unknown
2:52 AM 37.9 °F 33.5 °F 37.0 °F 97% 30.05 in - SW 5.8 mph - N/A   Unknown
3:52 AM 44.1 °F 40.1 °F 42.1 °F 93% 30.04 in - SSW 6.9 mph - N/A   Unknown
4:52 AM 44.1 °F 39.0 °F 42.1 °F 93% 30.04 in - SSW 9.2 mph - N/A   Unknown
5:52 AM 45.0 °F 39.3 °F 42.1 °F 90% 30.04 in - SSW 11.5 mph - N/A   Unknown
6:52 AM 45.0 °F 41.2 °F 42.1 °F 90% 30.05 in - South 6.9 mph - N/A   Unknown
7:52 AM 45.0 °F 40.6 °F 43.0 °F 93% 30.05 in - SW 8.1 mph - N/A   Unknown
8:52 AM 46.0 °F 41.4 °F 44.1 °F 93% 30.06 in - SSW 9.2 mph - N/A   Unknown
9:52 AM 46.9 °F - 46.0 °F 97% 30.07 in - SSW 6.9 mph - N/A   Unknown
10:52 AM 48.0 °F - 46.0 °F 93% 30.05 in - SSW 12.7 mph - 0.01 in   Unknown
11:52 AM 50.0 °F - 48.9 °F 96% 30.00 in - SSW 16.1 mph - 0.01 in   Unknown
12:52 PM 52.0 °F - 48.9 °F 89% 29.99 in - WSW 12.7 mph 18.4 mph 0.01 in   Unknown
1:52 PM 53.1 °F - 48.0 °F 83% 29.99 in - Variable 4.6 mph - 0.01 in   Unknown
2:52 PM 53.1 °F - 45.0 °F 74% 29.97 in - WSW 11.5 mph 19.6 mph N/A   Unknown
3:52 PM 53.1 °F - 43.0 °F 69% 29.95 in - West 6.9 mph - N/A   Unknown
4:52 PM 48.9 °F - 43.0 °F 80% 29.95 in - WSW 6.9 mph - N/A   Unknown
5:52 PM 44.1 °F 42.5 °F 39.9 °F 85% 29.97 in - ENE 3.5 mph - N/A   Unknown
6:52 PM 43.0 °F 40.3 °F 39.9 °F 89% 30.00 in - NE 4.6 mph - N/A   Unknown
7:52 PM 43.0 °F - 39.9 °F 89% 30.00 in - Calm Calm - N/A   Unknown
8:52 PM 37.9 °F 33.5 °F 35.1 °F 89% 30.03 in - ENE 5.8 mph - N/A   Unknown
9:52 PM 37.9 °F 35.5 °F 37.0 °F 97% 30.02 in - NE 3.5 mph - N/A   Unknown
10:52 PM 37.0 °F - 34.0 °F 89% 30.04 in - Calm Calm - N/A   Unknown
11:52 PM 36.0 °F 30.3 °F 34.0 °F 93% 30.03 in - ENE 6.9 mph - N/A   Unknown